FW6385 Weather Reports


time (UTC)temp
C
wind
direction
speed
KPH
gust
KPH
rain 1hr
cm
rain 24hr
cm
rain mn
cm
humidity
%
barometer
mb
20260509023440 16 180 6.4 16.1 0.00 0.03 0.03 83 1028.5
20260509020441 17 180 6.4 17.7 0.00 0.03 0.03 80 1029.3
20260509010437 16 180 8.0 14.5 0.00 0.03 0.03 82 1029.4
20260508233436 14 224 6.4 12.9 0.00 0.05 0.03 91 1029.5
20260508230437 13 180 4.8 9.7 0.00 0.05 0.03 95 1029.0
20260508213436 12 180 4.8 8.0 0.00 0.05 0.03 94 1028.8
20260508203436 12 180 4.8 6.4 0.03 0.05 0.03 93 1028.5
20260508193437 12 180 1.6 6.4 0.00 0.03 0.00 93 1028.1
20260508183436 12 180 4.8 8.0 0.00 0.03 0.00 93 1028.4
20260508183430 12 180 1.6 14.5 0.00 0.03 0.00 93 1027.9
20260508163427 12 180 4.8 9.7 0.00 0.03 0.00 93 1028.0
20260508153426 12 180 4.8 9.7 0.00 0.03 0.00 92 1028.4
20260508143427 12 180 4.8 12.9 0.00 0.03 0.00 91 1028.6
20260508133424 12 209 4.8 14.5 0.00 0.03 0.03 90 1028.9
20260508123426 13 212 6.4 14.5 0.00 0.03 0.03 89 1029.2
20260508113422 13 220 6.4 16.1 0.00 0.03 0.03 86 1029.1
20260508103422 13 222 8.0 17.7 0.00 0.03 0.03 85 1029.0
20260508100421 14 180 6.4 22.5 0.00 0.03 0.03 81 1029.0
20260508090421 15 240 6.4 19.3 0.00 0.03 0.03 81 1028.5
20260508073419 15 180 9.7 25.7 0.00 0.03 0.03 82 1028.1
20260508063419 16 180 11.3 24.1 0.00 0.03 0.03 79 1028.1
20260508053418 16 180 11.3 30.6 0.00 0.03 0.03 82 1028.2
20260508043418 17 180 12.9 29.0 0.00 0.03 0.03 79 1028.4
20260508033418 17 211 9.7 27.4 0.00 0.03 0.03 78 1028.8